Погода в Целине

Россия / Ростовская область     46°32′11″N   41°01′46″E
темп.,
°C
ветер,
м/с
пор.,
м/с
влажн.,
%
обл.,
%
осадки,
мм/ч
давл.,
гПа
погр.,
м
7 мая, пт
пт700:00+12ююв31070100 0.0 1012190
03:00+11ююв348188 0.1 101366
06:00+11ююз349569 1.1 1014133
09:00+16зюз4562100 1.3 1015460
12:00+19з67545 0.0 10161279
15:00+21з575388 0.0 10162062
18:00+18з486825 0.2 1016359
21:00+13зсз338622 0.2 101838
8 мая, сб
сб800:00+12с11865 0.0 101810
03:00+11юв22895 0.0 101713
06:00+12юв23865 0.0 101654
09:00+18юв356769 0.0 1016502
12:00+21ююв4556100 0.0 10141208
15:00+23ю4553100 0.0 10131788
18:00+21ю226898 0.0 101232
21:00+17ююв227998 0.1 101111
9 мая, вс
вс900:00+16юв2283100 0.1 100913
03:00+14всв2289100 0.9 100933
06:00+13с61196100 0.8 1008370
09:00+14ссв4590100 2.3 1009326
12:00+14ю599098 2.1 1009761
15:00+9сз91290100 2.4 1012776
18:00+7зсз71191100 0.1 10161012
21:00+7зсз71192100 1.2 10191110
10 мая, пн
пн1000:00+7сз91391100 0.5 10191147
03:00+7зсз81393100 1.5 10191261
06:00+5зсз81195100 1.6 10191015
09:00+5зсз7996100 2.4 1018769
12:00+5з6994100 0.3 1018667
15:00+6зюз6992100 0.3 1018807
18:00+6юз61092100 0.2 1017568
21:00+8зсз81497100 10.0 1013638
11 мая, вт
вт1100:00+6ююз4995100 0.1 1018533
03:00+6ююз4996100 0.4 1018606
06:00+7ю51193100 0.3 1020772
09:00+7ю3992100 1.4 1021503
12:00+10в2579100 0.3 1022445
15:00+12вюв587549 1.3 1021671
18:00+12в577687 0.3 1021451
21:00+9всв4686100 0.4 102193